Погода в Саваннакхете

Лаос     16°33′58″N   104°45′35″E
темп.,
°C
ветер,
м/с
пор.,
м/с
влажн.,
%
обл.,
%
осадки,
мм/ч
давл.,
гПа
погр.,
м
21 января, пт
пт2101:00+17всв388415 0.0 1013236
04:00+16св268991 0.0 1012176
07:00+17всв268755 0.0 1013193
10:00+23в3659100 0.0 1015598
13:00+29зюз2339100 0.0 10111840
16:00+25зсз4554100 0.0 1010379
19:00+21с366599 0.0 1012241
22:00+19с4879100 0.0 1014250
22 января, сб
сб2201:00+19с268095 0.0 1012222
04:00+18ссз248899 0.4 1011150
07:00+18ссз129237 1.2 101279
10:00+25всв11645 0.1 1013627
13:00+30юз244475 0.1 10091920
16:00+29юз2442100 0.0 10061598
19:00+26ссз2353100 0.0 100875
22:00+22с37710 0.0 1010163
23 января, вс
вс2301:00+20с23816 0.0 100953
04:00+19ссв22875 0.0 100826
07:00+19ссз23855 0.0 101173
10:00+28с21505 0.0 1012652
13:00+32зюз353634 0.0 10082632
16:00+33юз452778 0.0 10052943
19:00+27зюз223980 0.0 100721
22:00+25с33485 0.0 100844
24 января, пн
пн2401:00+24с2255100 0.0 100846
04:00+22всв116286 0.0 100815
07:00+22ссз116218 0.0 101016
10:00+30ссв22378 0.0 1011620
13:00+33зюз352999 0.0 10082907
16:00+33зюз55250 0.0 10062738
19:00+27зюз22350 0.0 100711
22:00+26ю22377 0.0 100811
25 января, вт
вт2501:00+26ссз223895 0.0 100843
04:00+23с11461 0.0 100811
07:00+21в115229 0.0 101011
10:00+30в113219 0.0 1011559
13:00+35юз12224 0.0 10083250
16:00+35зсз23201 0.0 10053293
19:00+28з23305 0.0 100725
22:00+25всв363960 0.0 1009110